,,,PA_Meas_PMT16A,,PR_Meas_QMR101_102,,RH_Meas_QMH101,,SR_Meas_QMS101,,TA_Meas_QMH101,,GenWind,,GenWind,
date,time,status,PA,status,PR,status,RH,status,SR,status,TA,status,DirAvg,status,SpdAvg,
2009-08-10, 00:00:04,VALID,1007.83,VALID,0,VALID,91.1888,VALID,0,VALID,25.4501,VALID,198,VALID,0.264844,
2009-08-10, 00:01:04,VALID,1007.84,VALID,0,VALID,91.1506,VALID,0,VALID,25.4482,VALID,203,VALID,0.270312,
2009-08-10, 00:02:04,VALID,1007.79,VALID,0,VALID,91.1354,VALID,0,VALID,25.4696,VALID,204,VALID,0.513281,
2009-08-10, 00:03:04,VALID,1007.76,VALID,0,VALID,91.0362,VALID,0,VALID,25.5086,VALID,219,VALID,0.64375,
2009-08-10, 00:04:04,VALID,1007.74,VALID,0,VALID,90.8532,VALID,0,VALID,25.5261,VALID,232,VALID,0.609766,
2009-08-10, 00:05:04,VALID,1007.73,VALID,0,VALID,90.6702,VALID,0,VALID,25.5651,VALID,214,VALID,0.644531,
2009-08-10, 00:06:04,VALID,1007.74,VALID,0,VALID,90.4491,VALID,0.105969,VALID,25.5827,VALID,217,VALID,0.611719,
2009-08-10, 00:07:04,VALID,1007.74,VALID,0,VALID,90.3499,VALID,0.105969,VALID,25.6022,VALID,213,VALID,0.593359,
2009-08-10, 00:08:04,VALID,1007.74,VALID,0,VALID,90.3118,VALID,0.105969,VALID,25.5827,VALID,211,VALID,0.472266,
2009-08-10, 00:09:04,VALID,1007.74,VALID,0,VALID,90.2432,VALID,0.105969,VALID,25.6022,VALID,216,VALID,0.436719,
2009-08-10, 00:10:04,VALID,1007.74,VALID,0,VALID,90.2813,VALID,0.105969,VALID,25.6022,VALID,210,VALID,0.512109,
2009-08-10, 00:11:04,VALID,1007.71,VALID,0,VALID,90.2584,VALID,0.105969,VALID,25.6217,VALID,207,VALID,0.539844,
2009-08-10, 00:12:04,VALID,1007.7,VALID,0,VALID,90.1898,VALID,0,VALID,25.6217,VALID,205,VALID,0.474219,
2009-08-10, 00:13:04,VALID,1007.67,VALID,0,VALID,90.1288,VALID,0.105969,VALID,25.6217,VALID,213,VALID,0.577344,
2009-08-10, 00:14:04,VALID,1007.66,VALID,0,VALID,90.1135,VALID,0.105969,VALID,25.6412,VALID,208,VALID,0.3,
2009-08-10, 00:15:04,VALID,1007.68,VALID,0,VALID,89.961,VALID,0.105969,VALID,25.6607,VALID,197,VALID,0.386328,
2009-08-10, 00:16:04,VALID,1007.66,VALID,0,VALID,89.839,VALID,0.105969,VALID,25.6626,VALID,192,VALID,0,
2009-08-10, 00:17:04,VALID,1007.68,VALID,0,VALID,89.839,VALID,0.105969,VALID,25.6217,VALID,196,VALID,0.135547,
2009-08-10, 00:18:04,VALID,1007.68,VALID,0,VALID,90.0525,VALID,0.105969,VALID,25.6217,VALID,207,VALID,0.449609,
2009-08-10, 00:19:04,VALID,1007.68,VALID,0,VALID,90.0983,VALID,0.105969,VALID,25.6217,VALID,207,VALID,0.565234,
2009-08-10, 00:20:04,VALID,1007.65,VALID,0,VALID,89.9991,VALID,0,VALID,25.6412,VALID,204,VALID,0.4375,
2009-08-10, 00:21:04,VALID,1007.68,VALID,0,VALID,89.9305,VALID,0,VALID,25.6236,VALID,200,VALID,0.3125,
2009-08-10, 00:22:04,VALID,1007.67,VALID,0,VALID,90.0068,VALID,0,VALID,25.6236,VALID,190,VALID,0.712109,
2009-08-10, 00:23:04,VALID,1007.64,VALID,0,VALID,89.9915,VALID,0,VALID,25.6236,VALID,190,VALID,0.00234375,
2009-08-10, 00:24:04,VALID,1007.64,VALID,0,VALID,90.1212,VALID,0,VALID,25.6236,VALID,190,VALID,0.363672,
2009-08-10, 00:25:04,VALID,1007.62,VALID,0,VALID,90.1898,VALID,0,VALID,25.6041,VALID,204,VALID,0.264844,
2009-08-10, 00:26:04,VALID,1007.61,VALID,0,VALID,90.1745,VALID,0,VALID,25.6451,VALID,204,VALID,0.453516,
2009-08-10, 00:27:04,VALID,1007.57,VALID,0,VALID,90.0983,VALID,0,VALID,25.6256,VALID,204,VALID,0.0457031,
2009-08-10, 00:28:04,VALID,1007.59,VALID,0,VALID,89.9534,VALID,0,VALID,25.5846,VALID,204,VALID,0.10625,
2009-08-10, 00:29:04,VALID,1007.6,VALID,0,VALID,90.0602,VALID,0,VALID,25.5456,VALID,204,VALID,0,
2009-08-10, 00:30:04,VALID,1007.58,VALID,0,VALID,90.083,VALID,0,VALID,25.4871,VALID,204,VALID,0,
2009-08-10, 00:31:04,VALID,1007.58,VALID,0,VALID,90.1822,VALID,0,VALID,25.4501,VALID,204,VALID,0,
2009-08-10, 00:32:04,VALID,1007.6,VALID,0,VALID,90.4796,VALID,0,VALID,25.3897,VALID,204,VALID,0,
2009-08-10, 00:33:04,VALID,1007.6,VALID,0,VALID,90.9295,VALID,0,VALID,25.3702,VALID,204,VALID,0.213281,
2009-08-10, 00:34:04,VALID,1007.6,VALID,0,VALID,90.9524,VALID,0,VALID,25.3507,VALID,204,VALID,0,
2009-08-10, 00:35:04,VALID,1007.56,VALID,0,VALID,91.0286,VALID,0,VALID,25.3312,VALID,204,VALID,0.00234375,
2009-08-10, 00:36:04,VALID,1007.55,VALID,0,VALID,91.1583,VALID,0,VALID,25.3098,VALID,212,VALID,0.295703,
2009-08-10, 00:37:04,VALID,1007.56,VALID,0,VALID,91.4633,VALID,0.105969,VALID,25.2903,VALID,216,VALID,0.0863281,
2009-08-10, 00:38:04,VALID,1007.53,VALID,0,VALID,91.3336,VALID,0,VALID,25.2903,VALID,212,VALID,0,
2009-08-10, 00:39:04,VALID,1007.52,VALID,0,VALID,91.3413,VALID,0,VALID,25.2708,VALID,199,VALID,0.10625,
2009-08-10, 00:40:04,VALID,1007.53,VALID,0,VALID,91.2955,VALID,0,VALID,25.2532,VALID,199,VALID,0,
2009-08-10, 00:41:04,VALID,1007.52,VALID,0,VALID,91.2955,VALID,0,VALID,25.2337,VALID,199,VALID,0,
2009-08-10, 00:42:04,VALID,1007.53,VALID,0,VALID,91.4175,VALID,0.105969,VALID,25.1928,VALID,199,VALID,0,
2009-08-10, 00:43:04,VALID,1007.51,VALID,0,VALID,91.6616,VALID,0,VALID,25.1538,VALID,197,VALID,0,
2009-08-10, 00:44:04,VALID,1007.54,VALID,0,VALID,92.1191,VALID,0,VALID,25.1928,VALID,197,VALID,0,
2009-08-10, 00:45:04,VALID,1007.52,VALID,0,VALID,91.9208,VALID,0.105969,VALID,25.1928,VALID,197,VALID,0,
2009-08-10, 00:46:04,VALID,1007.52,VALID,0,VALID,91.9132,VALID,0,VALID,25.2123,VALID,197,VALID,0,
2009-08-10, 00:47:04,VALID,1007.57,VALID,0,VALID,91.6387,VALID,0.105969,VALID,25.2318,VALID,197,VALID,0,
2009-08-10, 00:48:04,VALID,1007.55,VALID,0,VALID,91.7759,VALID,0,VALID,25.2123,VALID,197,VALID,0,
2009-08-10, 00:49:04,VALID,1007.55,VALID,0,VALID,92.0352,VALID,0,VALID,25.2337,VALID,191,VALID,0,
2009-08-10, 00:50:04,VALID,1007.53,VALID,0,VALID,92.0962,VALID,0.105969,VALID,25.2318,VALID,187,VALID,0.491406,
2009-08-10, 00:51:04,VALID,1007.52,VALID,0,VALID,91.7531,VALID,0,VALID,25.2318,VALID,187,VALID,0.003125,
2009-08-10, 00:52:04,VALID,1007.51,VALID,0,VALID,91.898,VALID,0.105969,VALID,25.2318,VALID,172,VALID,0.397656,
2009-08-10, 00:53:04,VALID,1007.49,VALID,0,VALID,92.0733,VALID,0,VALID,25.2513,VALID,170,VALID,0.249219,
2009-08-10, 00:54:04,VALID,1007.49,VALID,0,VALID,92.0428,VALID,0.105969,VALID,25.2532,VALID,170,VALID,0,
2009-08-10, 00:55:04,VALID,1007.49,VALID,0,VALID,91.9285,VALID,0.105969,VALID,25.2318,VALID,170,VALID,0,
2009-08-10, 00:56:04,VALID,1007.5,VALID,0,VALID,92.0352,VALID,0.105969,VALID,25.2337,VALID,170,VALID,0,
2009-08-10, 00:57:04,VALID,1007.47,VALID,0,VALID,92.2869,VALID,0,VALID,25.2123,VALID,170,VALID,0,
2009-08-10, 00:58:04,VALID,1007.43,VALID,0,VALID,92.3097,VALID,0,VALID,25.1928,VALID,170,VALID,0,
2009-08-10, 00:59:04,VALID,1007.44,VALID,0,VALID,92.4699,VALID,0,VALID,25.2123,VALID,170,VALID,0.00195313,
2009-08-10, 01:00:04,VALID,1007.44,VALID,0,VALID,92.4928,VALID,0.105969,VALID,25.2123,VALID,170,VALID,0,
2009-08-10, 01:01:04,VALID,1007.41,VALID,0,VALID,92.5309,VALID,0,VALID,25.2337,VALID,170,VALID,0,
2009-08-10, 01:02:04,VALID,1007.39,VALID,0,VALID,92.6453,VALID,0,VALID,25.2318,VALID,170,VALID,0.358203,
2009-08-10, 01:03:04,VALID,1007.4,VALID,0,VALID,92.6148,VALID,0.105969,VALID,25.2708,VALID,170,VALID,0.2125,
2009-08-10, 01:04:04,VALID,1007.4,VALID,0,VALID,92.4546,VALID,0.105969,VALID,25.3312,VALID,198,VALID,0.622266,
2009-08-10, 01:05:04,VALID,1007.43,VALID,0,VALID,92.3479,VALID,0.105969,VALID,25.3683,VALID,234,VALID,0.436328,
2009-08-10, 01:06:04,VALID,1007.42,VALID,0,VALID,92.0352,VALID,0.105969,VALID,25.4462,VALID,224,VALID,0.00273437,
2009-08-10, 01:07:04,VALID,1007.43,VALID,0,VALID,91.8598,VALID,0,VALID,25.4852,VALID,234,VALID,0.291797,
2009-08-10, 01:08:04,VALID,1007.43,VALID,0,VALID,91.6844,VALID,0,VALID,25.5261,VALID,234,VALID,0.1375,
2009-08-10, 01:09:04,VALID,1007.44,VALID,0,VALID,91.6158,VALID,0.105969,VALID,25.5242,VALID,234,VALID,0.116406,
2009-08-10, 01:10:04,VALID,1007.44,VALID,0,VALID,91.5395,VALID,0,VALID,25.5437,VALID,234,VALID,0,
2009-08-10, 01:11:04,VALID,1007.43,VALID,0,VALID,91.5777,VALID,0,VALID,25.5651,VALID,220,VALID,0.614453,
2009-08-10, 01:12:04,VALID,1007.41,VALID,0,VALID,91.5624,VALID,0,VALID,25.6022,VALID,192,VALID,0.733594,
2009-08-10, 01:13:04,VALID,1007.4,VALID,0,VALID,91.3108,VALID,0,VALID,25.6412,VALID,200,VALID,0.150781,
2009-08-10, 01:14:04,VALID,1007.42,VALID,0,VALID,91.1201,VALID,0.105969,VALID,25.6821,VALID,200,VALID,0.265625,
2009-08-10, 01:15:04,VALID,1007.38,VALID,0,VALID,90.9676,VALID,0,VALID,25.6997,VALID,200,VALID,0,
2009-08-10, 01:16:04,VALID,1007.39,VALID,0,VALID,90.8837,VALID,0.105969,VALID,25.6802,VALID,200,VALID,0,
2009-08-10, 01:17:04,VALID,1007.38,VALID,0,VALID,90.9676,VALID,0,VALID,25.6802,VALID,200,VALID,0.155859,
2009-08-10, 01:18:04,VALID,1007.38,VALID,0,VALID,90.9752,VALID,0.105969,VALID,25.6607,VALID,200,VALID,0.210156,
2009-08-10, 01:19:04,VALID,1007.38,VALID,0,VALID,91.021,VALID,0,VALID,25.6217,VALID,200,VALID,0,
2009-08-10, 01:20:04,VALID,1007.35,VALID,0,VALID,91.0591,VALID,0.105969,VALID,25.5827,VALID,200,VALID,0,
2009-08-10, 01:21:04,VALID,1007.37,VALID,0,VALID,91.4785,VALID,0.105969,VALID,25.5047,VALID,298,VALID,0,
2009-08-10, 01:22:04,VALID,1007.36,VALID,0,VALID,91.7149,VALID,0,VALID,25.4482,VALID,212,VALID,0.114453,
2009-08-10, 01:23:04,VALID,1007.38,VALID,0,VALID,92.1725,VALID,0,VALID,25.4482,VALID,212,VALID,0.0796875,
2009-08-10, 01:24:04,VALID,1007.4,VALID,0,VALID,92.3097,VALID,0.105969,VALID,25.4482,VALID,212,VALID,0,
2009-08-10, 01:25:04,VALID,1007.42,VALID,0,VALID,92.325,VALID,0.105969,VALID,25.4267,VALID,212,VALID,0.00078125,
2009-08-10, 01:26:04,VALID,1007.4,VALID,0,VALID,92.2869,VALID,0.105969,VALID,25.4267,VALID,212,VALID,0,
2009-08-10, 01:27:04,VALID,1007.42,VALID,0,VALID,92.2869,VALID,0.105969,VALID,25.4482,VALID,212,VALID,0,
2009-08-10, 01:28:04,VALID,1007.43,VALID,0,VALID,92.1725,VALID,0,VALID,25.3877,VALID,212,VALID,0,
2009-08-10, 01:29:04,VALID,1007.44,VALID,0,VALID,92.1801,VALID,0.105969,VALID,25.3877,VALID,212,VALID,0.0394531,
2009-08-10, 01:30:04,VALID,1007.45,VALID,0,VALID,92.2411,VALID,0.105969,VALID,25.3683,VALID,212,VALID,0.0597656,
2009-08-10, 01:31:04,VALID,1007.47,VALID,0,VALID,92.386,VALID,0.105969,VALID,25.3702,VALID,212,VALID,0,
2009-08-10, 01:32:04,VALID,1007.47,VALID,0,VALID,92.5004,VALID,0.105969,VALID,25.3683,VALID,212,VALID,0,
2009-08-10, 01:33:04,VALID,1007.47,VALID,0,VALID,92.5309,VALID,0.105969,VALID,25.3488,VALID,212,VALID,0,
2009-08-10, 01:34:04,VALID,1007.46,VALID,0,VALID,92.6071,VALID,0,VALID,25.3507,VALID,212,VALID,0.0132813,
2009-08-10, 01:35:04,VALID,1007.49,VALID,0,VALID,92.5843,VALID,0.105969,VALID,25.3098,VALID,212,VALID,0,
2009-08-10, 01:36:04,VALID,1007.47,VALID,0,VALID,92.5995,VALID,0,VALID,25.2903,VALID,212,VALID,0,
2009-08-10, 01:37:04,VALID,1007.48,VALID,0,VALID,92.8969,VALID,0.105969,VALID,25.2922,VALID,212,VALID,0,
2009-08-10, 01:38:04,VALID,1007.5,VALID,0,VALID,93.0189,VALID,0,VALID,25.2708,VALID,212,VALID,0.103906,
2009-08-10, 01:39:04,VALID,1007.52,VALID,0,VALID,93.1105,VALID,0,VALID,25.2532,VALID,212,VALID,0.366797,
2009-08-10, 01:40:04,VALID,1007.53,VALID,0,VALID,93.2858,VALID,0,VALID,25.2142,VALID,212,VALID,0.441016,
2009-08-10, 01:41:04,VALID,1007.55,VALID,0,VALID,93.5222,VALID,0.105969,VALID,25.1538,VALID,212,VALID,0.353906,
2009-08-10, 01:42:04,VALID,1007.58,VALID,0,VALID,93.629,VALID,0,VALID,25.1362,VALID,212,VALID,0.461719,
2009-08-10, 01:43:04,VALID,1007.6,VALID,0,VALID,93.8196,VALID,0,VALID,25.0778,VALID,212,VALID,0.394141,
2009-08-10, 01:44:04,VALID,1007.66,VALID,0,VALID,94.0027,VALID,0.105969,VALID,25.0583,VALID,212,VALID,0.501172,
2009-08-10, 01:45:04,VALID,1007.69,VALID,0,VALID,93.9569,VALID,0.105969,VALID,25.0193,VALID,212,VALID,0.499609,
2009-08-10, 01:46:04,VALID,1007.68,VALID,0,VALID,94.0408,VALID,0.105969,VALID,24.9608,VALID,212,VALID,0.385938,
2009-08-10, 01:47:04,VALID,1007.69,VALID,0,VALID,94.1857,VALID,0,VALID,24.9413,VALID,212,VALID,0.306641,
2009-08-10, 01:48:04,VALID,1007.68,VALID,0,VALID,94.3229,VALID,0,VALID,24.8828,VALID,212,VALID,0.245312,
2009-08-10, 01:49:04,VALID,1007.66,VALID,0,VALID,94.506,VALID,0.105969,VALID,24.8633,VALID,212,VALID,0.327344,
2009-08-10, 01:50:04,VALID,1007.65,VALID,0,VALID,94.6737,VALID,0,VALID,24.803,VALID,212,VALID,0.1625,
2009-08-10, 01:51:04,VALID,1007.61,VALID,0,VALID,94.7729,VALID,0.105969,VALID,24.7854,VALID,212,VALID,0.136719,
2009-08-10, 01:52:04,VALID,1007.58,VALID,0,VALID,94.8568,VALID,0.105969,VALID,24.725,VALID,212,VALID,0.576563,
2009-08-10, 01:53:04,VALID,1007.59,VALID,0,VALID,94.9788,VALID,0,VALID,24.7269,VALID,212,VALID,0.310547,
2009-08-10, 01:54:04,VALID,1007.58,VALID,0,VALID,94.9864,VALID,0,VALID,24.6879,VALID,212,VALID,0,
2009-08-10, 01:55:04,VALID,1007.56,VALID,0,VALID,95.0321,VALID,0,VALID,24.6471,VALID,212,VALID,0.325,
2009-08-10, 01:56:04,VALID,1007.57,VALID,0,VALID,95.0474,VALID,0.105969,VALID,24.6276,VALID,212,VALID,0.546484,
2009-08-10, 01:57:04,VALID,1007.58,VALID,0,VALID,95.0474,VALID,0,VALID,24.6099,VALID,212,VALID,0.346484,
2009-08-10, 01:58:04,VALID,1007.57,VALID,0,VALID,95.177,VALID,0.105969,VALID,24.5691,VALID,4,VALID,0.691406,
2009-08-10, 01:59:04,VALID,1007.6,VALID,0,VALID,95.2304,VALID,0,VALID,24.5515,VALID,4,VALID,0.515234,
2009-08-10, 02:00:04,VALID,1007.59,VALID,0,VALID,95.3677,VALID,0.105969,VALID,24.532,VALID,4,VALID,0.358594,
2009-08-10, 02:01:04,VALID,1007.58,VALID,0,VALID,95.4973,VALID,0.105969,VALID,24.493,VALID,4,VALID,0.513281,
2009-08-10, 02:02:04,VALID,1007.6,VALID,0,VALID,95.6727,VALID,0.105969,VALID,24.4735,VALID,356,VALID,0.940625,
2009-08-10, 02:03:04,VALID,1007.6,VALID,0,VALID,95.8633,VALID,0.105969,VALID,24.4735,VALID,356,VALID,0.877734,
2009-08-10, 02:04:04,VALID,1007.6,VALID,0,VALID,95.871,VALID,0.105969,VALID,24.493,VALID,355,VALID,0.498047,
2009-08-10, 02:05:04,VALID,1007.62,VALID,0,VALID,95.7947,VALID,0.105969,VALID,24.454,VALID,7,VALID,0.381641,
2009-08-10, 02:06:04,VALID,1007.62,VALID,0,VALID,95.7795,VALID,0.105969,VALID,24.4522,VALID,26,VALID,0.351172,
2009-08-10, 02:07:04,VALID,1007.64,VALID,0,VALID,95.7718,VALID,0,VALID,24.4327,VALID,26,VALID,0.358984,
2009-08-10, 02:08:04,VALID,1007.63,VALID,0,VALID,95.8328,VALID,0.105969,VALID,24.4327,VALID,356,VALID,0.689062,
2009-08-10, 02:09:04,VALID,1007.62,VALID,0,VALID,95.9701,VALID,0.105969,VALID,24.4327,VALID,360,VALID,0.576172,
2009-08-10, 02:10:04,VALID,1007.62,VALID,0,VALID,95.9777,VALID,0.105969,VALID,24.4327,VALID,357,VALID,0.455859,
2009-08-10, 02:11:04,VALID,1007.6,VALID,0,VALID,95.9549,VALID,0.105969,VALID,24.4327,VALID,357,VALID,0.501562,
2009-08-10, 02:12:04,VALID,1007.58,VALID,0,VALID,96.0616,VALID,0.105969,VALID,24.4327,VALID,357,VALID,0.325,
2009-08-10, 02:13:04,VALID,1007.62,VALID,0,VALID,96.0769,VALID,0.105969,VALID,24.4132,VALID,32,VALID,0.443359,
2009-08-10, 02:14:04,VALID,1007.6,VALID,0,VALID,96.0235,VALID,0.105969,VALID,24.4132,VALID,32,VALID,0.367969,
2009-08-10, 02:15:04,VALID,1007.6,VALID,0,VALID,96.0387,VALID,0.105969,VALID,24.3937,VALID,32,VALID,0,
2009-08-10, 02:16:04,VALID,1007.56,VALID,0,VALID,96.0692,VALID,0.105969,VALID,24.415,VALID,32,VALID,0,
2009-08-10, 02:17:04,VALID,1007.56,VALID,0,VALID,96.115,VALID,0,VALID,24.3742,VALID,32,VALID,0.0746094,
2009-08-10, 02:18:04,VALID,1007.56,VALID,0,VALID,96.1531,VALID,0.105969,VALID,24.3742,VALID,32,VALID,0.260938,
2009-08-10, 02:19:04,VALID,1007.56,VALID,0,VALID,96.1989,VALID,0.105969,VALID,24.3547,VALID,32,VALID,0.473437,
2009-08-10, 02:20:04,VALID,1007.53,VALID,0,VALID,96.2141,VALID,0.105969,VALID,24.3547,VALID,28,VALID,0.5125,
2009-08-10, 02:21:04,VALID,1007.54,VALID,0,VALID,96.2828,VALID,0.105969,VALID,24.3547,VALID,17,VALID,0.495313,
2009-08-10, 02:22:04,VALID,1007.53,VALID,0,VALID,96.3133,VALID,0.105969,VALID,24.3547,VALID,15,VALID,0.0121094,
2009-08-10, 02:23:04,VALID,1007.5,VALID,0,VALID,96.298,VALID,0.105969,VALID,24.3547,VALID,15,VALID,0.00429688,
2009-08-10, 02:24:04,VALID,1007.49,VALID,0,VALID,96.2751,VALID,0.105969,VALID,24.3352,VALID,15,VALID,0,
2009-08-10, 02:25:04,VALID,1007.5,VALID,0,VALID,96.298,VALID,0,VALID,24.3352,VALID,15,VALID,0,
2009-08-10, 02:26:04,VALID,1007.5,VALID,0,VALID,96.2904,VALID,0.105969,VALID,24.3158,VALID,15,VALID,0.275,
2009-08-10, 02:27:04,VALID,1007.51,VALID,0,VALID,96.2828,VALID,0,VALID,24.3158,VALID,15,VALID,0.135937,
2009-08-10, 02:28:04,VALID,1007.56,VALID,0,VALID,96.3056,VALID,0.105969,VALID,24.2963,VALID,15,VALID,0,
2009-08-10, 02:29:04,VALID,1007.54,VALID,0,VALID,96.3743,VALID,0.105969,VALID,24.2963,VALID,15,VALID,0,
2009-08-10, 02:30:04,VALID,1007.54,VALID,0,VALID,96.42,VALID,0.105969,VALID,24.2963,VALID,15,VALID,0,
2009-08-10, 02:31:04,VALID,1007.55,VALID,0,VALID,96.4429,VALID,0.105969,VALID,24.3158,VALID,15,VALID,0,
2009-08-10, 02:32:04,VALID,1007.54,VALID,0,VALID,96.4658,VALID,0.105969,VALID,24.3158,VALID,15,VALID,0.449609,
2009-08-10, 02:33:04,VALID,1007.54,VALID,0,VALID,96.481,VALID,0.105969,VALID,24.3176,VALID,15,VALID,0.302734,
2009-08-10, 02:34:04,VALID,1007.51,VALID,0,VALID,96.5039,VALID,0,VALID,24.3176,VALID,15,VALID,0.0703125,
2009-08-10, 02:35:04,VALID,1007.52,VALID,0,VALID,96.4963,VALID,0.105969,VALID,24.2963,VALID,15,VALID,0,
2009-08-10, 02:36:04,VALID,1007.52,VALID,0,VALID,96.4734,VALID,0,VALID,24.2963,VALID,15,VALID,0,
2009-08-10, 02:37:04,VALID,1007.56,VALID,0,VALID,96.5039,VALID,0.105969,VALID,24.2963,VALID,15,VALID,0,
2009-08-10, 02:38:04,VALID,1007.54,VALID,0,VALID,96.4887,VALID,0.105969,VALID,24.2768,VALID,15,VALID,0,
2009-08-10, 02:39:04,VALID,1007.57,VALID,0,VALID,96.4963,VALID,0.105969,VALID,24.2768,VALID,15,VALID,0,
2009-08-10, 02:40:04,VALID,1007.57,VALID,0,VALID,96.5268,VALID,0.105969,VALID,24.2768,VALID,15,VALID,0,
2009-08-10, 02:41:04,VALID,1007.59,VALID,0,VALID,96.5192,VALID,0.105969,VALID,24.2768,VALID,15,VALID,0.129297,
2009-08-10, 02:42:04,VALID,1007.58,VALID,0,VALID,96.5192,VALID,0.105969,VALID,24.2573,VALID,15,VALID,0.0570313,
2009-08-10, 02:43:04,VALID,1007.57,VALID,0,VALID,96.5344,VALID,0.105969,VALID,24.2573,VALID,15,VALID,0,
2009-08-10, 02:44:04,VALID,1007.59,VALID,0,VALID,96.5725,VALID,0.105969,VALID,24.2378,VALID,15,VALID,0,
2009-08-10, 02:45:04,VALID,1007.56,VALID,0,VALID,96.5497,VALID,0.105969,VALID,24.2183,VALID,15,VALID,0,
2009-08-10, 02:46:04,VALID,1007.6,VALID,0,VALID,96.5649,VALID,0.105969,VALID,24.2183,VALID,15,VALID,0,
2009-08-10, 02:47:04,VALID,1007.59,VALID,0,VALID,96.5802,VALID,0.105969,VALID,24.2183,VALID,15,VALID,0,
2009-08-10, 02:48:04,VALID,1007.57,VALID,0,VALID,96.5497,VALID,0.105969,VALID,24.1988,VALID,15,VALID,0,
2009-08-10, 02:49:04,VALID,1007.58,VALID,0,VALID,96.5725,VALID,0.105969,VALID,24.1793,VALID,15,VALID,0,
2009-08-10, 02:50:04,VALID,1007.61,VALID,0,VALID,96.5954,VALID,0.105969,VALID,24.1988,VALID,15,VALID,0,
2009-08-10, 02:51:04,VALID,1007.64,VALID,0,VALID,96.6335,VALID,0.105969,VALID,24.158,VALID,15,VALID,0,
2009-08-10, 02:52:04,VALID,1007.64,VALID,0,VALID,96.6412,VALID,0.105969,VALID,24.2007,VALID,15,VALID,0,
2009-08-10, 02:53:04,VALID,1007.65,VALID,0,VALID,96.6564,VALID,0.105969,VALID,24.1599,VALID,15,VALID,0,
2009-08-10, 02:54:04,VALID,1007.69,VALID,0,VALID,96.7251,VALID,0,VALID,24.1599,VALID,15,VALID,0,
2009-08-10, 02:55:04,VALID,1007.7,VALID,0,VALID,96.7327,VALID,0.105969,VALID,24.1599,VALID,15,VALID,0,
2009-08-10, 02:56:04,VALID,1007.68,VALID,0,VALID,96.7327,VALID,0.105969,VALID,24.1404,VALID,15,VALID,0,
2009-08-10, 02:57:04,VALID,1007.73,VALID,0,VALID,96.7479,VALID,0.105969,VALID,24.1209,VALID,15,VALID,0,
2009-08-10, 02:58:04,VALID,1007.71,VALID,0,VALID,96.7632,VALID,0.105969,VALID,24.1209,VALID,15,VALID,0.431641,
2009-08-10, 02:59:04,VALID,1007.71,VALID,0,VALID,96.7632,VALID,0.105969,VALID,24.1209,VALID,15,VALID,0.233203,
2009-08-10, 03:00:04,VALID,1007.68,VALID,0,VALID,96.7937,VALID,0.105969,VALID,24.1014,VALID,15,VALID,0.391797,
2009-08-10, 03:01:04,VALID,1007.67,VALID,0,VALID,96.8013,VALID,0.105969,VALID,24.0819,VALID,12,VALID,0.524219,
2009-08-10, 03:02:04,VALID,1007.65,VALID,0,VALID,96.8166,VALID,0,VALID,24.0819,VALID,13,VALID,0.198828,
2009-08-10, 03:03:04,VALID,1007.65,VALID,0,VALID,96.8471,VALID,0,VALID,24.0837,VALID,13,VALID,0.215234,
2009-08-10, 03:04:04,VALID,1007.63,VALID,0,VALID,96.8852,VALID,0.105969,VALID,24.0624,VALID,13,VALID,0.114844,
2009-08-10, 03:05:04,VALID,1007.63,VALID,0,VALID,96.8852,VALID,0.105969,VALID,24.0624,VALID,13,VALID,0.0078125,
2009-08-10, 03:06:04,VALID,1007.63,VALID,0,VALID,96.8852,VALID,0,VALID,24.0448,VALID,13,VALID,0.0507813,
2009-08-10, 03:07:04,VALID,1007.61,VALID,0,VALID,96.9157,VALID,0,VALID,24.0448,VALID,13,VALID,0,
2009-08-10, 03:08:04,VALID,1007.62,VALID,0,VALID,96.9538,VALID,0,VALID,24.0466,VALID,13,VALID,0.307813,
2009-08-10, 03:09:04,VALID,1007.62,VALID,0,VALID,96.9615,VALID,0,VALID,24.0058,VALID,13,VALID,0.149219,
2009-08-10, 03:10:04,VALID,1007.61,VALID,0,VALID,96.9996,VALID,0,VALID,23.9863,VALID,13,VALID,0.173438,
2009-08-10, 03:11:04,VALID,1007.58,VALID,0,VALID,97.0453,VALID,0,VALID,23.9863,VALID,13,VALID,0.167578,
2009-08-10, 03:12:04,VALID,1007.58,VALID,0,VALID,97.0682,VALID,0,VALID,23.965,VALID,13,VALID,0.230469,
2009-08-10, 03:13:04,VALID,1007.56,VALID,0,VALID,97.1063,VALID,0,VALID,23.9668,VALID,13,VALID,0.282031,
2009-08-10, 03:14:04,VALID,1007.55,VALID,0,VALID,97.1292,VALID,0,VALID,23.9473,VALID,13,VALID,0.116797,
2009-08-10, 03:15:04,VALID,1007.58,VALID,0,VALID,97.1445,VALID,0,VALID,23.9473,VALID,13,VALID,0.219141,
2009-08-10, 03:16:04,VALID,1007.58,VALID,0,VALID,97.2055,VALID,0,VALID,23.9473,VALID,13,VALID,0.171875,
2009-08-10, 03:17:04,VALID,1007.57,VALID,0,VALID,97.2207,VALID,0,VALID,23.9473,VALID,13,VALID,0.14375,
2009-08-10, 03:18:04,VALID,1007.54,VALID,0,VALID,97.2436,VALID,0,VALID,23.9278,VALID,13,VALID,0.000390625,
2009-08-10, 03:19:04,VALID,1007.55,VALID,0,VALID,97.2665,VALID,0,VALID,23.9278,VALID,13,VALID,0,
2009-08-10, 03:20:04,VALID,1007.53,VALID,0,VALID,97.2589,VALID,0,VALID,23.9278,VALID,13,VALID,0.173438,
2009-08-10, 03:21:04,VALID,1007.5,VALID,0,VALID,97.2817,VALID,0,VALID,23.9084,VALID,13,VALID,0.264453,
2009-08-10, 03:22:04,VALID,1007.51,VALID,0,VALID,97.3122,VALID,0,VALID,23.9278,VALID,13,VALID,0.304688,
2009-08-10, 03:23:04,VALID,1007.51,VALID,0,VALID,97.3046,VALID,0,VALID,23.9278,VALID,13,VALID,0.140234,
2009-08-10, 03:24:04,VALID,1007.48,VALID,0,VALID,97.3199,VALID,0,VALID,23.8871,VALID,13,VALID,0,
2009-08-10, 03:25:04,VALID,1007.48,VALID,0,VALID,97.297,VALID,0,VALID,23.9084,VALID,13,VALID,0,
2009-08-10, 03:26:04,VALID,1007.5,VALID,0,VALID,97.2894,VALID,0,VALID,23.8889,VALID,13,VALID,0,
2009-08-10, 03:27:04,VALID,1007.53,VALID,0,VALID,97.2894,VALID,0,VALID,23.8889,VALID,13,VALID,0,
2009-08-10, 03:28:04,VALID,1007.54,VALID,0,VALID,97.2665,VALID,0,VALID,23.8676,VALID,13,VALID,0,
2009-08-10, 03:29:04,VALID,1007.52,VALID,0,VALID,97.2665,VALID,0,VALID,23.8889,VALID,13,VALID,0,
2009-08-10, 03:30:04,VALID,1007.55,VALID,0,VALID,97.2741,VALID,0,VALID,23.8694,VALID,13,VALID,0,
2009-08-10, 03:31:04,VALID,1007.57,VALID,0,VALID,97.2665,VALID,0,VALID,23.8889,VALID,13,VALID,0,
2009-08-10, 03:32:04,VALID,1007.59,VALID,0,VALID,97.2665,VALID,0,VALID,23.8694,VALID,13,VALID,0,
2009-08-10, 03:33:04,VALID,1007.61,VALID,0,VALID,97.3199,VALID,0,VALID,23.8889,VALID,13,VALID,0,
2009-08-10, 03:34:04,VALID,1007.6,VALID,0,VALID,97.3046,VALID,0,VALID,23.8889,VALID,13,VALID,0.0832031,
2009-08-10, 03:35:04,VALID,1007.58,VALID,0,VALID,97.3351,VALID,0,VALID,23.8889,VALID,13,VALID,0.100391,
2009-08-10, 03:36:04,VALID,1007.57,VALID,0,VALID,97.3504,VALID,0,VALID,23.9102,VALID,13,VALID,0,
2009-08-10, 03:37:04,VALID,1007.59,VALID,0,VALID,97.358,VALID,0,VALID,23.8907,VALID,13,VALID,0,
2009-08-10, 03:38:04,VALID,1007.56,VALID,0,VALID,97.3351,VALID,0,VALID,23.8907,VALID,13,VALID,0,
2009-08-10, 03:39:04,VALID,1007.57,VALID,0,VALID,97.3504,VALID,0,VALID,23.8694,VALID,13,VALID,0.135937,
2009-08-10, 03:40:04,VALID,1007.59,VALID,0,VALID,97.3199,VALID,0,VALID,23.8907,VALID,13,VALID,0.180859,
2009-08-10, 03:41:04,VALID,1007.61,VALID,0,VALID,97.3122,VALID,0,VALID,23.8499,VALID,13,VALID,0.189063,
2009-08-10, 03:42:04,VALID,1007.61,VALID,0,VALID,97.3275,VALID,0,VALID,23.8499,VALID,13,VALID,0.265234,
2009-08-10, 03:43:04,VALID,1007.65,VALID,0,VALID,97.2741,VALID,0,VALID,23.8322,VALID,13,VALID,0.250781,